User: anonymous   Login
Location: Pine Mountain Observatory
(43.7910°N, 120.9377°W)
Time: 22:44:10
(UTC-08:00)
Language:

Cosmos 1867 - Orbit

View from above orbital plane
View from above orbital plane
View from above satellite
View from above satellite

Ground track
Ground track

The orbit data is extracted from the following two-line orbital elements,

1 18187U 87060A   16040.51330273 -.00000093  00000-0  26871-5 0  9993
2 18187  65.0103 170.3854 0020568 275.4065  84.4672 14.31069805493352
Epoch (UTC): 09 February 2016 12:19:09
Eccentricity: 0.0020568
inclination: 65.0103°
perigee height: 773 km
apogee height: 803 km
right ascension of ascending node: 170.3854°
argument of perigee: 275.4065°
revolutions per day: 14.31069805
mean anomaly at epoch: 84.4672°
orbit number at epoch: 49335

The dashed part of the orbit path shows where the satellite is in the earth's shadow,  

DLR